Hutchinson, KS

5:44 PM CST on November 15, 2019 (GMT -0600)
Hutchinson Municipal

Weather History for KHUT - September, 2019

Change the Weather History Date:

Friday, September 20, 2019

  Actual Average Record
Temperature  
Mean Temperature 76 °F -  
Max Temperature 82 °F 77 °F 98 °F (1998)
Min Temperature 69 °F 51 °F 37 °F (2000)
Cooling Degree Days 10    
Growing Degree Days 26 (Base 50)    
Moisture  
Dew Point 68 °F    
Average Humidity 79    
Maximum Humidity 90    
Minimum Humidity 62    
Precipitation  
Precipitation 0.00 in - - ()
Sea Level Pressure  
Sea Level Pressure 29.88 in    
Wind  
Wind Speed 10 mph (SE)    
Max Wind Speed 18 mph    
Max Gust Speed 26 mph    
Visibility 10 miles    
Events      
Averages and records for this station are not official NWS values.
T = Trace of Precipitation, MM = Missing Value Source: NWS Daily Summary

Daily Weather History Graph

Daily Weather History Graph

Search for Another Location

Airport or City:

Astronomy

Sep. 20, 2019 Rise Set
Actual Time 7:17 AM CDT 7:31 PM CDT
Civil Twilight 6:50 AM CDT 7:58 PM CDT
Nautical Twilight 6:20 AM CDT 8:28 PM CDT
Astronomical Twilight 5:48 AM CDT 9:00 PM CDT
Moon 11:28 PM CDT (9/20) 1:18 PM CDT (9/20)
Length of Visible Light 13h 07m
Length of Day
12h 14m
Waning Gibbous, 65% of the Moon is Illuminated
Sep 20
Waning Gibbous
Sep 21
Last Quarter
Sep 28
New
Oct 5
First Quarter
Oct 13
Full

Hourly Weather History & Observations

Time (CDT) Temp. Heat Index Dew Point Humidity Pressure Visibility Wind Dir Wind Speed Gust Speed Precip Events Conditions
12:52 AM 73.9 °F - 68.0 °F 82% 29.89 in 10.0 mi SE 6.9 mph - N/A   Clear
1:52 AM 73.9 °F - 66.9 °F 79% 29.90 in 10.0 mi SE 6.9 mph - N/A   Clear
2:52 AM 72.0 °F - 66.9 °F 84% 29.88 in 10.0 mi SE 3.5 mph - N/A   Clear
3:52 AM 71.1 °F - 66.9 °F 87% 29.88 in 10.0 mi East 3.5 mph - N/A   Clear
4:52 AM 71.1 °F - 66.9 °F 87% 29.86 in 10.0 mi ESE 8.1 mph - N/A   Clear
5:52 AM 70.0 °F - 66.0 °F 87% 29.87 in 10.0 mi ESE 8.1 mph - N/A   Clear
6:52 AM 69.1 °F - 66.0 °F 90% 29.89 in 10.0 mi SE 9.2 mph - N/A   Clear
7:52 AM 69.1 °F - 66.0 °F 90% 29.91 in 10.0 mi SE 8.1 mph - N/A   Clear
8:52 AM 71.1 °F - 66.9 °F 87% 29.92 in 10.0 mi SSE 9.2 mph - N/A   Mostly Cloudy
9:52 AM 73.0 °F - 66.9 °F 81% 29.92 in 10.0 mi South 13.8 mph - N/A   Overcast
10:52 AM 73.0 °F - 66.9 °F 81% 29.93 in 10.0 mi South 10.4 mph - N/A   Overcast
11:52 AM 75.9 °F - 68.0 °F 76% 29.91 in 10.0 mi SSE 10.4 mph - N/A   Overcast
11:59 AM 78.1 °F - 69.1 °F 74% 29.97 in 10.0 mi SE 9.2 mph - N/A   Overcast
12:52 PM 79.0 °F - 69.1 °F 72% 29.88 in 10.0 mi SE 12.7 mph 18.4 mph N/A   Mostly Cloudy
1:52 PM 79.0 °F - 70.0 °F 74% 29.87 in 10.0 mi ESE 10.4 mph - N/A   Overcast
2:52 PM 81.0 °F 84.1 °F 69.1 °F 67% 29.85 in 10.0 mi SE 13.8 mph - N/A   Mostly Cloudy
3:20 PM 81.0 °F 84.1 °F 69.1 °F 67% 29.90 in 10.0 mi ESE 13.8 mph - N/A   Mostly Cloudy
3:52 PM 82.0 °F 84.9 °F 68.0 °F 62% 29.82 in 10.0 mi SSE 16.1 mph - N/A   Partly Cloudy
4:52 PM 82.0 °F 85.5 °F 69.1 °F 65% 29.81 in 10.0 mi SE 13.8 mph - N/A   Partly Cloudy
5:52 PM 80.1 °F 82.7 °F 68.0 °F 67% 29.82 in 10.0 mi SE 16.1 mph - N/A   Mostly Cloudy
7:52 PM 75.9 °F - 69.1 °F 79% 29.82 in 10.0 mi SE 11.5 mph - N/A   Clear
8:52 PM 75.0 °F - 69.1 °F 82% 29.82 in 10.0 mi SE 13.8 mph - N/A   Clear
9:19 PM 75.9 °F - 70.0 °F 82% 29.89 in 10.0 mi SSE 17.3 mph 24.2 mph N/A   Mostly Cloudy
9:52 PM 75.0 °F - 69.1 °F 82% 29.83 in 10.0 mi SSE 16.1 mph 25.3 mph N/A   Clear
10:40 PM 75.0 °F - 69.1 °F 82% 29.90 in 10.0 mi South 17.3 mph - N/A   Mostly Cloudy
10:52 PM 75.0 °F - 70.0 °F 84% 29.85 in 10.0 mi South 15.0 mph - N/A   Mostly Cloudy
11:52 PM 75.0 °F - 70.0 °F 84% 29.84 in 10.0 mi South 18.4 mph 26.5 mph N/A   Overcast